Showing default

DB-WALI-WMU, 68443

Orbit data source: Space-Track

DB-WALI-WMU, 68443 is a payload satellite owned by NearSpaceLaunch (US) in SSO that was launched on Mon, 30 Mar 2026 UTC via an FALCON 9 launch vehicle from the Air Force Western Test Range (AFWTR). Payload-class satellites include a variety of spacecraft equipped with specific instruments for various scientific and technological missions. These include communications satellites like Starlink; space stations such as the ISS; scientific satellites like the Hubble; Earth observation satellites from companies like Planet Labs, Umbra, and HawkEye 360; GPS; miniature CubeSats for education and research; and military/defense satellites.

Loading next visibility...
Identifier
68443, 2026-067AD
Orbit
SSO
Country
Flag of USUS
Related business
Manufacturer
NearSpaceLaunch
Mission
Operational Commercial Technology
Bus & Motor
THINSAT 0.5U, Unknown motor
Mass
0.5 kg wet, 0.5 kg dry
Launch date (UTC)
2026-03-30 (6 months ago)
Launch vehicle
FALCON 9
Launch site
Air Force Western Test Range (AFWTR)
Object type
Payload
Rocket body
Debris
Shape & HBR
Box + 2 Pan, 0.2 m
Radar Cross Section
0.017 m², Medium (>0.1 m² and < 1m²)

Expand to show TLE details & history
Last TLE update: 1 day ago

TLE from 1 day ago
0 DB-WALI-WMU
1 68443U 26067AD  26262.11485620  .00003474  00000-0  17250-3 0  9997
2 68443  97.4659 219.1591 0006385 100.4937 259.7016 15.18328641 26187
Epoch: 2026-09-19T02:45Z
TLE epoch observation values (Epoch: 2026-09-19T02:45:23.575Z)
Latitude
-0.00011°
Longitude
179.78286°
Altitude
514.767 km
Speed
7.606 km/s
True Right ascension
14h 36m 38s
True Declination
0° 00' 00"
Sunlit
Object was in daylight at epoch
Visualization orbit readout
Latitude
Unknown
Longitude
Unknown
Altitude
Unknown
Speed
Unknown
Apparent Right ascension
Unknown
Apparent Declination
Unknown
Sunlit
N/A
Visualization observer readout
Local Sidereal Time
03:12:06
Azimuth
Unknown
Elevation
Unknown
Doppler factor
Unknown
Orbital elements
Apogee altitude
512.259 km
Perigee altitude
503.465 km
Semi-major axis
6,885.999 km
Eccentricity
0.00064
Inclination
97.4659°
RAAN
219.1591°
Arg. of periapsis
100.4937°
True anomaly
259.62962°
Mean anomaly
259.7016°
Eccentric anomaly
259.66561°
Mean motion
3.79833 °/min
Orbital period
94.78 mins
BSTAR
0.0001725
Loading maneuver chart data...
Computing Atmospheric mass density...
Loading historical data...
Loading historical data...
Loading historical data...
Loading historical data...
Loading historical data...
Loading historical data...
Loading historical data...

Documentation

Showing up to 5 results
|